Simultaneous Nadir Overpasses (SNOs) Predictions

Prediction of SNOs between NOAA-19 and TERRA Satellite Orbit:

Table of predicted SNOs for the next 14.0 days since TLE Epoch: 7/1/2023
Index Date (NOAA-19) Time (NOAA-19) Lat,Lon (NOAA-19) SZA (NOAA-19 ) Date (TERRA) Time (TERRA) Lat,Lon (TERRA) SZA (TERRA ) Distance(km) Time Diff (sec)
1 07/02/2023 07:40:34 -80.90, -81.67 120.66 07/02/2023 07:40:35 -80.90, -81.85 120.68 3.16 1
2 07/04/2023 11:31:09 80.90, 40.45 59.48 07/04/2023 11:30:49 80.88, 40.30 59.44 3.02 20
3 07/06/2023 14:30:40 80.89, -4.92 59.62 07/06/2023 14:31:41 80.87, -5.04 59.62 2.46 61
4 07/06/2023 15:21:33 -80.89, 162.83 120.33 07/06/2023 15:21:04 -80.88, 162.68 120.37 3.29 29
5 07/08/2023 18:21:03 -80.89, 117.77 120.13 07/08/2023 18:21:55 -80.89, 117.61 120.13 2.88 52
6 07/08/2023 19:12:07 80.89, -74.73 59.90 07/08/2023 19:11:16 80.89, -74.72 59.88 0.32 51
7 07/10/2023 22:11:37 80.89,-119.85 60.13 07/10/2023 22:12:07 80.90,-119.89 60.14 1.18 30
8 07/10/2023 23:02:30 -80.90, 47.92 119.82 07/10/2023 23:01:30 -80.91, 47.86 119.84 1.48 60



Historial Predications of SNOs between NOAA-19 and TERRA
